Temp
18 20 22 23 20 22 24 26 29 30 29 28 30 31 26 24 27 23 25 23 21 20 20 20 19 19 19 19 19 19 18 18 18 18 17 17 17 16 16 16 16 16 16 16 16 16 15 15 15
17 21 23 21 21 22 25 27 29 30 31 28 28 30 29 23 24 24 24 22 21 20 19 19 19 19 19 19 19 18 18 18 18 18 17 16 16 16 16 16 15 15 15 15 15 15 15 14 15
17 20 21 21 22 22 25 28 29 29 30 29 29 29 27 22 24 24 24 22 21 20 19 19 19 19 19 18 18 18 19 19 18 18 16 16 16 15 15 15 15 15 15 15 15 14 14 14 14
20 21 21 21 22 25 26 28 30 29 28 29 28 24 24 25 24 25 24 23 22 20 20 19 19 19 18 18 18 19 19 18 17 16 16 15 15 15 15 16 15 14 14 14 14 14 14 13 13
20 20 19 21 23 25 27 28 27 22 28 29 28 24 22 22 23 24 24 23 21 19 19 19 19 18 18 18 18 18 18 18 16 16 16 17 17 17 17 16 15 14 13 13 13 13 13 13 13
18 20 20 20 23 25 27 25 26 22 26 29 26 23 21 21 22 24 24 23 21 19 18 18 18 18 18 18 18 18 18 18 18 18 18 18 17 17 17 16 14 13 13 13 13 13 13 14 15
18 18 20 22 23 25 27 25 25 22 22 28 24 22 20 20 22 24 23 23 21 20 18 17 18 18 18 18 18 18 18 18 18 18 17 17 17 17 17 15 15 14 14 14 14 14 14 15 15
19 19 19 21 23 24 28 26 28 25 27 29 26 21 20 20 22 23 23 23 21 20 19 17 17 18 18 18 18 18 18 18 18 17 17 16 16 15 15 15 15 15 15 14 14 14 15 15 15
21 17 18 21 23 24 27 26 25 27 27 27 26 24 22 20 22 23 23 22 21 20 18 18 17 17 18 18 18 18 18 17 17 17 17 16 16 15 16 15 15 14 14 14 15 15 15 15 15
18 17 19 22 24 21 24 20 27 26 23 24 23 22 21 21 22 22 21 20 20 18 18 19 18 17 17 18 17 17 17 17 17 16 17 16 16 16 15 15 15 15 15 15 15 15 15 15 15
18 17 20 23 21 21 22 23 24 24 22 18 20 20 21 22 22 21 20 18 19 19 19 19 18 18 17 17 17 17 17 17 16 16 16 16 16 16 16 15 15 15 15 14 14 15 15 15 15
18 20 20 22 21 21 21 22 22 22 22 22 21 21 21 20 21 20 19 18 19 19 19 19 18 18 18 18 17 17 17 17 16 16 16 16 16 16 16 15 15 15 15 14 14 14 15 15 15
18 19 21 21 21 21 21 21 21 22 21 22 20 21 21 20 21 19 19 19 19 19 19 19 19 18 18 18 18 18 17 17 16 16 16 16 16 15 15 15 15 14 14 14 14 14 15 15 15
18 19 19 21 20 21 21 21 21 23 22 21 20 19 19 19 20 18 18 18 19 19 19 19 18 18 18 18 18 17 17 17 16 16 16 15 15 15 15 15 14 14 14 14 14 14 15 15 15
18 17 18 19 20 20 21 20 20 22 23 21 20 17 19 19 19 19 19 19 19 19 18 18 18 18 17 17 17 17 16 16 16 15 15 15 15 15 14 14 14 14 13 14 14 14 14 14 14
17 17 16 20 19 20 20 17 21 23 22 21 20 19 19 19 19 19 20 19 19 18 17 17 17 17 17 17 16 16 16 16 16 15 15 14 15 14 14 14 14 13 13 13 14 13 13 13 14
17 15 17 19 21 20 19 19 20 22 21 20 19 19 17 16 18 19 19 20 19 18 17 16 17 17 17 16 16 16 16 15 15 15 14 14 14 14 14 14 13 13 13 13 13 13 13 13 13
15 17 17 18 21 20 19 19 21 21 21 20 19 18 17 17 17 19 19 20 19 18 17 16 17 17 17 16 16 15 15 15 15 15 14 14 14 14 14 13 13 13 13 13 13 13 13 13 13
16 16 17 18 19 20 18 19 20 21 19 19 18 18 17 18 18 19 20 18 18 16 16 16 16 16 16 16 15 15 15 15 15 14 14 14 14 14 13 13 13 13 13 13 13 13 13 13 13
16 16 16 18 20 19 18 18 20 21 19 18 18 18 18 18 18 18 17 17 16 15 15 15 16 16 16 16 16 16 16 15 15 14 14 13 13 13 13 13 13 13 13 13 12 12 12 13 12
16 15 16 17 19 19 18 17 18 21 20 18 18 17 18 18 18 17 16 15 15 15 15 16 16 16 16 16 16 16 16 15 15 14 13 13 13 13 13 13 13 12 12 12 12 12 12 12 12
15 17 17 17 16 13 18 12 17 20 21 19 18 17 18 17 18 18 17 15 15 15 15 16 16 16 16 16 16 16 16 15 15 15 14 13 13 13 13 13 12 12 12 12 12 12 11 11 11
15 15 15 16 14 14 15 13 16 19 20 20 18 18 17 18 18 18 18 16 15 15 15 15 16 16 16 15 16 16 15 16 16 15 14 13 13 12 12 12 12 12 11 11 11 11 11 11 11
16 15 15 15 13 11 14 14 14 18 20 21 20 19 18 18 18 18 19 17 16 16 15 15 15 15 15 15 15 15 15 16 15 14 14 13 13 12 12 12 12 11 11 11 11 11 10 11 11
14 13 13 13 13 12 10 13 16 18 20 20 22 20 19 19 18 17 18 17 17 16 15 14 14 14 15 15 15 15 15 16 15 14 14 13 13 12 12 12 11 11 11 10 10 10 10 10 10
13 13 11 13 11 12 13 12 14 19 19 20 21 21 20 19 19 19 18 19 18 17 15 14 14 14 14 14 14 15 15 15 15 14 14 14 13 12 12 11 11 10 10 10 10 10 10 10 9
14 12 16 12 14 11 12 16 18 18 19 20 20 20 20 20 20 19 19 20 19 17 15 15 14 14 14 14 14 14 14 14 14 14 13 13 13 12 11 11 10 10 10 9 9 10 10 10 9
13 14 13 12 12 13 13 15 14 19 18 18 18 18 18 17 18 19 18 18 18 17 15 15 15 15 15 14 14 14 13 13 13 13 12 12 12 11 10 10 10 9 9 9 9 9 9 9 9
11 11 13 15 13 12 12 13 19 19 18 17 17 18 17 17 16 16 18 19 19 17 15 15 15 15 14 14 13 13 13 12 12 12 12 11 11 10 10 9 9 9 9 9 9 9 9 9 9
14 13 14 12 13 12 10 14 18 18 17 17 17 17 17 17 16 16 15 18 18 17 15 15 15 15 14 14 13 12 12 11 11 11 11 10 10 9 9 9 9 9 8 8 8 8 8 8 8
Height
791 790 792 793 810 797 789 777 751 751 752 742 736 745 765 771 775 806 787 790 795 801 805 810 814 817 819 822 824 826 827 828 829 830 830 831 831 832 831 831 831 831 830 830 830 829 829 829 828
790 790 790 791 806 802 784 761 759 747 735 739 744 747 757 785 776 782 787 792 797 801 807 810 814 817 820 823 825 827 828 829 830 831 831 831 832 832 832 831 831 831 831 831 830 830 828 828 827
790 787 790 791 790 789 779 755 749 742 733 740 751 748 759 782 779 782 788 793 799 804 807 811 815 818 822 824 826 828 829 830 831 831 832 832 832 833 832 832 832 831 831 831 830 830 829 828 828
788 787 785 787 781 769 762 749 739 749 743 737 748 771 769 773 778 782 789 793 799 804 808 812 816 819 822 825 827 829 830 831 832 833 833 833 833 833 833 833 832 832 832 831 831 831 830 828 827
787 783 792 785 775 764 749 738 738 762 744 741 744 770 778 781 781 785 789 795 799 804 809 813 817 820 823 825 828 830 831 832 833 834 833 833 833 833 833 833 833 832 832 832 831 831 830 829 828
791 781 788 788 772 759 746 744 744 755 740 740 753 765 780 782 783 785 790 795 800 804 810 815 818 820 823 826 828 830 832 833 834 834 834 834 834 834 834 833 833 833 833 832 832 831 831 830 829
789 788 785 774 774 763 747 743 753 763 758 746 752 768 780 782 782 785 790 795 800 805 810 814 818 821 824 826 829 830 832 834 835 835 835 835 835 835 835 835 834 834 834 833 833 832 831 831 830
784 787 785 774 769 764 739 740 736 743 740 733 741 767 777 777 780 784 790 796 800 807 811 815 819 822 824 827 829 831 832 834 835 836 836 837 837 836 836 836 836 836 836 835 835 834 833 832 831
778 794 790 776 767 758 737 743 736 734 736 736 738 746 751 768 776 783 789 795 800 806 811 815 819 822 825 827 830 832 832 835 836 837 838 838 839 839 838 838 838 838 837 837 836 836 834 833 832
785 794 783 764 756 764 751 757 735 744 744 745 749 752 760 764 770 778 785 791 798 804 810 815 819 821 824 827 830 832 833 836 837 839 839 839 839 839 839 839 839 839 839 838 837 836 836 835 834
785 790 772 763 762 759 756 750 753 747 758 775 768 763 763 764 767 775 784 790 796 803 809 814 818 822 825 827 830 832 834 836 837 838 839 840 840 840 840 841 840 840 840 839 839 838 837 836 835
785 775 773 766 763 765 763 755 754 750 750 757 764 758 764 765 764 771 780 789 795 802 808 813 818 821 824 827 830 832 835 837 837 838 839 839 840 841 841 841 841 841 841 840 839 838 837 836 836
784 777 769 766 765 763 761 761 757 754 744 745 757 761 764 764 762 772 780 789 794 800 807 812 817 821 823 827 830 832 834 836 837 838 838 839 840 840 841 841 841 841 841 841 840 839 838 838 837
784 781 774 768 767 763 765 762 757 743 743 749 755 762 767 770 765 771 778 786 793 798 805 810 815 819 823 825 829 832 834 835 837 838 839 839 840 841 841 842 842 841 841 841 840 839 839 838 838
784 787 778 773 769 767 761 766 762 746 740 747 755 763 766 766 772 779 777 783 789 795 803 809 813 818 821 825 828 831 833 835 837 838 839 840 840 841 841 842 842 841 842 841 840 840 839 839 839
785 784 790 767 766 765 769 780 757 746 746 749 751 757 763 766 770 781 782 784 789 795 802 808 812 816 820 824 827 830 832 834 836 838 839 840 840 841 841 841 841 841 841 841 840 840 840 839 840
785 794 783 773 756 764 770 773 758 747 747 752 756 755 757 750 768 781 781 785 788 793 800 805 810 815 819 823 827 829 832 834 836 837 839 840 840 841 841 841 841 841 841 841 841 841 840 840 840
795 786 780 775 763 762 767 769 756 749 750 752 755 759 761 764 771 783 780 783 788 793 797 803 808 814 817 821 825 828 831 834 835 836 838 839 840 840 840 840 841 841 841 841 841 841 840 840 840
788 786 782 773 765 763 769 767 757 752 753 753 755 756 761 763 772 771 777 782 787 794 797 800 806 811 814 818 822 826 828 831 833 835 836 837 839 839 840 840 840 840 840 841 841 841 840 840 839
787 787 784 772 762 766 771 768 753 749 750 752 754 758 759 761 763 765 774 779 785 790 794 798 804 808 812 815 820 824 826 829 831 833 834 836 837 838 838 839 839 839 840 840 841 841 840 840 839
788 789 787 778 767 765 771 770 758 745 743 745 749 754 759 758 761 765 771 772 781 786 789 794 800 804 809 813 816 821 823 826 828 830 832 834 835 836 836 837 838 838 839 839 840 840 840 840 840
788 778 775 778 784 800 766 797 758 745 741 741 743 749 751 757 757 758 766 771 774 778 786 790 796 800 806 809 812 816 818 821 823 826 829 831 833 833 834 835 836 837 838 838 839 839 840 841 840
787 782 784 782 789 788 781 792 754 743 741 738 738 740 745 746 749 749 753 761 769 777 780 786 792 797 800 805 808 812 816 819 820 823 826 829 830 831 832 833 834 835 836 837 838 838 839 840 840
780 784 783 781 791 808 780 782 765 745 730 725 725 729 733 738 742 744 744 754 766 773 777 781 786 791 795 800 803 808 812 815 817 820 823 826 827 828 830 831 832 833 834 835 836 837 838 838 838
788 795 798 800 793 794 791 782 751 734 726 722 719 722 725 729 736 740 743 751 754 763 772 778 782 784 789 794 798 804 809 812 813 817 819 822 824 825 827 828 829 831 832 833 834 835 836 837 837
791 791 801 794 803 787 774 776 754 723 715 714 712 711 713 719 725 732 736 741 748 756 764 771 774 778 782 789 794 799 805 808 809 812 814 818 821 823 824 826 827 828 829 831 832 833 834 835 836
782 793 776 795 777 793 773 747 727 719 717 714 714 713 714 713 717 723 729 735 742 750 756 761 767 771 775 783 788 793 799 804 805 808 810 814 818 820 822 824 825 826 828 829 830 831 832 833 834
779 781 790 791 793 782 766 752 751 720 722 718 718 718 715 716 716 717 724 730 736 743 750 755 761 765 769 778 783 785 793 799 803 803 806 809 813 816 818 821 823 824 825 826 828 829 831 831 833
788 787 781 774 776 785 781 763 719 719 719 723 717 712 714 715 718 719 717 723 729 737 744 749 756 762 766 772 778 782 786 793 799 800 802 806 810 812 815 818 819 821 823 825 827 828 828 829 831
765 768 766 783 775 773 786 754 719 717 718 718 716 714 714 715 717 718 721 722 725 731 738 744 751 757 762 766 771 779 781 786 793 796 800 802 806 809 812 815 818 819 821 823 825 825 827 828 830
Wind_Speed
11 7 7 4 2 5 11 12 16 7 7 3 6 4 11 11 2 6 24 28 30 25 22 21 19 20 17 16 14 14 13 13 11 10 11 12 11 11 11 11 11 11 11 10 11 10 11 10 9
8 9 6 3 5 9 11 13 17 10 6 11 10 3 7 5 4 13 18 30 27 23 22 22 19 21 18 16 14 13 12 10 9 10 11 11 11 11 11 10 10 10 10 10 10 10 11 11 11
10 8 2 4 7 15 11 11 15 3 7 9 4 5 6 5 9 12 30 29 28 26 23 22 20 20 17 15 14 12 10 9 9 9 11 11 11 10 10 10 10 10 11 11 10 11 11 11 12
9 5 4 7 15 16 17 14 11 9 4 11 10 9 5 9 15 19 29 30 27 27 22 22 20 19 17 15 12 10 9 9 9 10 10 11 10 10 9 9 9 10 10 10 11 11 11 11 12
10 4 6 11 16 19 16 11 8 6 9 10 11 7 8 10 17 29 28 27 29 27 24 22 20 19 17 14 12 10 10 10 10 10 10 9 8 8 8 9 10 10 10 10 11 11 12 12 12
4 3 6 15 17 17 18 6 12 5 15 7 8 10 6 15 18 26 27 27 27 25 24 21 19 18 15 13 11 10 9 8 8 8 8 8 8 9 9 10 10 11 11 11 11 11 12 13 15
6 7 10 10 16 15 18 9 12 21 25 9 18 6 6 11 22 26 25 26 26 24 24 21 20 18 15 12 10 9 9 9 9 9 9 11 11 10 10 12 11 11 11 12 12 12 13 13 17
7 7 15 14 10 21 17 9 6 7 9 12 15 7 8 19 24 28 26 25 28 27 24 22 19 17 15 13 10 9 9 9 9 10 13 13 14 13 11 10 13 12 14 15 17 16 17 15 14
6 4 11 14 16 14 11 5 5 4 7 6 6 7 19 34 29 27 28 26 27 26 24 20 19 16 14 13 11 10 11 9 11 12 12 10 7 5 10 15 14 17 14 16 16 18 17 16 15
4 5 14 12 12 11 11 9 6 3 2 5 12 16 35 36 33 26 23 22 27 27 25 23 20 17 14 13 11 10 11 9 9 7 8 5 8 11 11 14 13 14 15 15 15 16 16 14 13
8 10 15 12 9 11 10 4 11 9 10 6 5 17 22 28 28 26 21 23 26 27 23 22 20 18 16 13 12 11 9 7 7 8 6 7 6 8 9 9 11 11 11 11 12 12 13 14 13
10 11 18 13 7 7 10 11 13 14 3 22 16 20 21 21 19 24 24 24 25 27 24 23 20 18 14 12 10 10 9 7 5 7 7 6 6 6 6 8 8 9 11 11 12 13 13 13 13
6 9 9 10 8 6 7 9 11 14 7 6 9 18 20 19 21 26 26 25 25 25 26 23 21 18 17 14 13 12 11 8 7 6 7 7 6 5 7 7 8 9 10 12 12 13 13 12 12
3 10 10 7 10 10 7 9 10 8 5 4 23 13 14 12 16 26 28 26 26 26 28 26 23 20 18 17 15 12 12 10 7 5 6 7 6 6 8 6 7 8 9 10 10 11 12 10 9
7 5 8 8 9 9 6 8 8 11 6 8 18 11 16 13 21 18 25 27 25 27 28 27 23 20 18 16 15 13 10 9 8 5 5 5 5 7 7 7 6 9 8 9 9 10 10 9 8
5 7 7 9 12 12 5 11 10 11 5 7 10 14 14 9 16 19 18 25 25 25 27 28 24 20 18 17 15 12 12 10 8 6 4 4 4 6 5 5 6 7 8 9 10 10 10 9 7
4 5 6 9 14 8 10 6 11 13 6 7 9 9 6 1 8 15 23 25 27 25 27 26 23 21 19 17 15 12 11 8 7 7 4 4 3 3 3 4 4 5 7 7 8 8 9 8 7
4 6 7 4 1 9 12 11 15 4 5 7 8 12 11 14 15 19 24 22 26 26 27 28 26 24 21 18 16 12 13 10 7 6 7 5 3 1 3 2 2 5 4 4 7 7 8 6 8
8 9 7 7 6 4 9 12 14 8 5 6 5 4 9 15 20 28 22 25 24 23 25 27 27 25 24 21 18 15 13 12 10 10 9 6 6 2 1 1 1 1 2 4 5 6 5 6 11
8 9 8 8 6 4 8 12 17 12 7 8 8 6 9 13 15 18 22 26 26 27 28 28 28 27 25 22 17 13 14 11 8 9 9 8 5 4 3 3 2 1 1 1 2 5 6 5 9
10 8 8 10 5 6 7 11 11 15 8 9 8 11 12 13 17 15 17 24 25 27 30 32 32 30 27 23 20 14 18 14 14 10 10 10 8 6 4 4 3 2 1 1 1 2 4 4 6
9 8 6 7 6 3 2 5 10 13 18 10 9 8 11 14 12 15 17 20 27 27 30 33 33 32 29 26 24 23 21 15 15 13 12 10 9 6 5 4 4 4 3 3 2 2 0 2 4
7 5 6 8 6 5 8 4 7 7 17 12 11 13 12 14 14 16 19 26 24 24 30 33 34 33 31 28 25 23 18 13 13 15 15 11 9 8 6 5 5 4 4 4 5 4 2 2 1
6 5 8 6 2 3 9 6 6 9 17 18 15 16 17 14 15 14 21 26 26 29 30 34 35 34 32 31 27 24 21 15 17 16 14 13 11 9 8 7 5 5 5 5 4 4 4 3 2
4 5 1 3 3 5 1 1 11 11 7 7 17 17 17 17 15 13 17 22 27 29 29 31 35 35 34 32 30 25 21 19 18 18 17 17 15 12 9 7 6 5 6 6 5 5 5 4 2
7 5 3 5 3 4 2 6 6 12 10 10 5 4 16 18 17 18 15 24 29 31 35 33 34 33 35 32 28 26 23 20 20 18 18 16 13 12 12 9 8 8 7 5 4 4 3 3 4
4 5 1 2 6 1 5 6 7 10 8 4 5 6 6 17 18 20 18 24 26 29 33 34 33 31 34 33 31 27 24 24 23 21 20 18 16 14 13 10 8 7 7 6 5 5 5 4 2
4 3 2 2 3 4 6 7 7 1 7 8 7 9 7 6 10 13 12 21 27 29 31 31 32 33 35 33 31 29 28 25 24 23 21 18 16 15 12 10 9 8 6 6 5 4 4 4 3
4 3 5 2 4 3 3 5 2 2 4 8 4 7 7 9 8 6 12 21 28 28 30 31 31 30 33 33 30 30 29 26 24 22 19 18 16 13 12 11 9 8 7 6 6 6 5 5 4
11 8 10 3 5 4 3 9 8 3 3 2 4 5 5 4 5 2 3 9 22 25 28 30 32 33 35 34 33 31 29 28 25 22 20 18 17 14 13 12 11 10 10 9 9 7 6 6 6
Wind_Direction
269 279 278 248 256 231 229 228 254 271 282 45 93 49 93 36 99 126 135 128 130 135 139 137 135 131 135 129 125 119 118 117 106 92 84 79 74 67 64 57 52 47 43 40 34 34 33 29 23
261 255 236 254 233 223 222 241 246 253 120 122 68 55 88 93 53 133 117 132 133 137 132 134 136 143 132 127 128 123 117 110 98 89 83 76 68 63 61 58 52 46 41 37 37 30 28 23 17
261 244 226 203 228 233 223 206 252 318 114 110 99 18 96 93 125 128 132 133 136 134 140 141 135 134 130 135 127 122 113 104 96 87 83 75 68 62 57 53 49 40 36 32 29 26 24 18 11
232 231 272 230 230 226 242 234 220 136 184 137 126 86 69 139 142 136 142 134 136 135 145 141 137 135 139 133 127 118 110 100 92 90 83 76 71 63 51 41 34 35 31 29 25 19 16 12 9
254 252 231 235 237 252 230 235 252 331 181 172 152 109 101 67 128 141 139 138 134 134 141 137 141 142 138 133 126 119 109 101 95 90 80 72 59 49 41 40 37 40 33 27 23 18 15 13 13
225 258 220 230 224 241 252 195 185 123 290 180 103 113 109 130 162 148 143 139 133 134 136 140 147 143 141 135 129 121 113 102 94 83 72 60 52 48 43 42 39 37 34 31 29 25 21 20 20
255 252 249 232 237 223 252 168 207 164 248 174 129 102 116 142 174 147 141 142 136 133 143 148 146 146 142 141 136 124 110 99 88 78 70 63 54 50 44 40 39 39 35 30 27 24 25 37 33
253 271 265 253 247 233 232 167 224 323 194 134 137 153 163 172 170 146 145 145 135 142 150 145 148 147 145 142 134 123 109 97 85 77 70 60 39 35 42 37 42 37 39 34 34 37 37 24 23
245 272 252 246 249 264 247 203 244 259 266 163 129 152 143 168 151 151 148 142 144 150 147 150 143 148 152 145 135 124 107 90 78 71 67 70 68 67 35 38 40 37 31 33 30 32 29 28 19
257 229 261 252 254 339 349 21 160 227 49 58 74 100 141 162 153 155 157 140 144 144 150 149 154 155 144 145 135 123 102 84 78 72 79 67 41 42 31 27 27 30 27 23 22 22 21 23 27
214 246 263 290 28 6 336 144 306 266 151 34 263 147 158 155 157 156 150 146 152 148 151 156 156 154 153 152 148 127 125 120 119 121 103 75 52 51 42 26 25 31 28 23 24 29 19 23 27
246 242 251 289 12 359 335 326 309 294 118 159 214 164 169 160 163 159 147 155 158 155 155 158 160 160 155 153 134 136 133 123 120 102 92 101 85 72 57 46 36 27 32 21 24 23 25 25 32
335 292 284 269 296 297 311 305 289 276 129 157 136 178 170 176 160 148 154 165 165 155 160 161 161 159 162 148 154 155 150 158 146 129 127 117 104 89 70 47 45 30 28 26 26 23 27 26 39
308 303 307 264 274 285 297 296 330 302 158 153 140 203 171 192 153 150 161 172 171 161 165 161 162 167 163 163 162 166 165 165 151 132 114 114 108 90 91 62 41 41 25 31 26 25 26 30 40
270 285 281 253 266 258 319 297 245 278 284 197 156 154 225 183 144 167 171 171 168 162 174 168 163 171 167 167 162 170 165 154 144 139 122 113 105 87 76 61 32 41 27 31 37 27 37 36 41
236 240 262 243 209 238 142 265 286 241 223 243 180 170 179 148 145 175 187 172 161 173 177 170 168 168 167 167 167 168 163 162 163 155 145 128 100 97 75 72 33 41 34 22 39 23 31 32 27
283 274 256 280 186 211 187 264 240 270 204 240 190 191 171 159 143 184 191 185 167 176 171 174 170 167 166 169 166 170 162 167 166 160 174 157 139 103 110 69 35 51 43 26 29 27 25 21 14
306 287 294 276 259 200 230 232 266 191 263 265 226 181 182 169 186 206 205 174 160 164 176 179 173 171 167 167 168 171 167 168 185 172 185 183 183 172 115 91 31 39 57 30 32 26 27 16 357
291 294 265 278 284 272 242 255 238 218 192 251 239 203 189 188 188 187 194 158 171 180 184 182 177 176 173 172 168 173 178 183 190 185 199 187 194 205 118 78 59 7 43 40 30 19 21 23 10
277 283 287 266 274 206 273 267 249 249 193 199 200 208 191 175 188 178 158 162 174 181 188 185 186 181 183 179 174 185 184 195 199 199 199 193 195 214 184 215 209 204 139 72 28 26 33 38 23
259 251 273 295 293 298 267 277 255 239 213 178 207 184 209 190 186 194 169 163 176 182 187 192 192 189 188 181 176 178 176 167 175 199 195 201 201 224 215 212 203 205 203 158 37 12 39 31 49
262 346 285 287 306 259 237 281 238 232 235 188 183 204 205 194 209 189 171 171 182 189 193 195 195 192 193 189 186 189 186 182 202 202 199 203 208 216 227 211 200 198 208 196 199 242 185 27 28
232 14 308 291 248 308 285 296 266 269 226 225 188 197 207 200 207 187 172 179 186 188 189 199 199 198 198 197 197 198 201 201 180 175 180 199 213 211 222 205 210 199 211 209 225 221 226 220 350
322 296 269 256 111 261 228 228 252 221 226 224 204 198 198 201 211 210 180 165 180 189 193 200 200 201 202 200 201 201 200 191 175 180 189 197 207 214 221 216 212 212 211 222 222 231 232 229 247
228 291 205 259 218 226 180 214 250 282 266 262 220 192 190 194 200 216 180 178 174 184 185 194 199 197 203 202 203 201 203 198 191 191 190 193 194 207 221 217 212 208 221 223 225 227 229 241 243
204 206 175 243 213 276 132 233 250 233 248 243 319 195 188 181 194 202 201 180 182 180 183 190 193 194 200 204 202 200 205 199 195 194 193 198 201 202 202 221 210 213 225 221 223 233 244 231 251
266 221 331 297 270 314 214 261 286 263 271 280 236 274 218 185 189 194 200 187 180 179 183 186 189 191 197 200 195 196 200 200 195 194 195 196 199 202 216 212 209 211 212 210 205 218 214 226 230
209 349 197 190 264 256 267 250 231 195 241 237 228 242 226 226 198 184 186 187 186 183 183 185 191 188 189 191 194 190 194 199 199 197 194 195 202 203 201 200 194 195 192 195 190 178 196 200 187
176 210 219 282 241 228 308 269 19 70 292 287 285 222 223 195 218 219 191 181 183 181 183 186 189 187 186 187 188 188 192 196 199 197 192 194 198 196 188 187 182 180 174 173 165 178 180 158 171
200 199 201 181 250 228 202 272 273 124 30 56 36 76 47 31 13 220 221 184 170 175 176 180 186 188 187 184 185 191 191 189 196 192 192 190 191 186 181 181 174 175 171 167 170 164 161 160 157